Location: Bannatyne
(13.0833°N, 59.5333°W)
Time: 18:00:13
(UTC+00:00)

Explorer 7 - Pass Details

Date: 24 January 2020
Orbit: 485 x 679 km, 50.3° (Epoch: 22 February)

Event Time Altitude Azimuth Distance (km) Brightness Sun altitude
Rises 01:29:04 0° 242° (WSW) 2,663 - -50.9°
Reaches altitude 10° 01:31:39 10° 257° (WSW) 1,741 - -51.6°
Maximum altitude 01:34:49 23° 310° (NW) 1,099 - -52.3°
Drops below altitude 10° 01:37:54 10° 5° (N) 1,680 - -53.0°
Sets 01:40:22 0° 20° (NNE) 2,546 - -53.6°
